[[{"header":{"parameterUnit":"m.s-1","parameterCategory":1,"la1":30.2992,"la2":30.254,"lo1":-89.0895,"lo2":-89.0443,"dy":0.0025,"dx":0.0025,"nx":19,"ny":19,"refTime":"2026-03-23T09:00:00:Z","depth":0,"parameterNumber":2,"parameterNumberName":"U-component_of_WINDS"},"data":[0,0,0,2.5645,2.5649,2.5806,2.5806,2.6015,2.6017,0,0,0,0,0,0,0,0,0,0,0,2.56,2.5601,2.5645,2.5649,2.5805,2.5806,2.6015,2.6017,0,0,0,0,0,0,0,0,0,0,0,2.5599,2.5601,2.5602,2.565,2.5805,2.5806,2.6015,2.5894,0,0,0,0,0,0,0,0,0,0,2.5741,2.5698,2.56,2.5603,2.565,2.5805,2.5806,2.5888,2.5902,2.5947,0,2.5983,0,2.6004,2.6031,2.6032,0,0,0,2.5649,2.5687,2.5728,2.5603,2.5652,2.5805,2.5735,2.5896,2.5911,2.5965,2.5986,2.5994,2.6007,2.6033,2.6034,2.6289,2.629,0,0,2.564,2.5629,2.5718,2.5738,2.571,2.573,2.574,2.5905,2.5929,2.5987,2.5999,2.6011,2.6034,2.6036,2.6288,2.629,0,0,0,2.5615,2.5623,2.566,2.573,2.5757,2.5734,2.5746,2.5922,2.5935,2.6001,2.6013,2.6035,2.6038,2.6287,2.6289,2.6338,0,0,0,2.561,2.5608,2.5656,2.5651,2.5754,2.584,2.5759,2.5923,2.5942,2.6012,2.6035,2.604,2.6285,2.6288,2.6333,2.6363,0,0,0,2.5589,2.5606,2.5629,2.565,2.5717,2.5838,2.5861,2.5928,2.595,2.6032,2.6041,2.6284,2.6287,2.633,2.6357,2.643,0,0,0,2.5564,2.5668,2.5629,2.5751,2.5715,2.5866,2.5859,2.5972,2.6049,2.6037,2.6286,2.6288,2.6328,2.6353,2.6426,2.649,2.6515,0,0,2.5689,2.5683,2.5755,2.5725,2.588,2.5843,2.6007,2.6088,2.6107,2.6229,2.6235,2.6335,2.6356,2.6429,2.6656,2.6676,0,0,0,2.5792,2.5844,2.5887,2.5959,2.6024,2.6084,2.6141,2.6173,2.6277,2.6165,2.638,2.6393,2.6436,2.6468,2.6485,2.6525,2.6302,2.6301,2.6301,2.5952,2.5972,2.6095,2.6135,2.6206,2.6266,2.6327,2.6381,2.6378,2.6429,2.6466,2.6601,2.6637,2.665,2.6691,2.65,2.65,2.65,2.65,2.614,2.6219,2.6216,2.6335,2.6358,2.6459,2.6525,2.6521,2.6622,2.6573,2.6613,2.6559,2.6671,2.6709,2.6504,2.6503,2.6503,2.6503,2.6502,2.6248,2.629,2.6326,2.6436,2.652,2.6559,2.6657,2.6673,2.6689,2.6728,2.6772,2.6771,2.6775,2.6747,2.6748,2.6748,2.6749,2.6749,2.6749,2.6348,2.6387,2.6466,2.6547,2.6599,2.6669,2.6736,2.6789,2.6852,2.6857,2.6857,2.6854,2.6677,2.6634,2.6757,2.6756,2.6755,2.6754,2.6753,2.6533,2.6495,2.6617,2.6669,2.6769,2.6855,2.6875,2.6983,2.7029,2.7079,2.7068,2.6934,2.6929,2.6916,2.688,2.706,2.706,2.706,2.706,2.6627,2.6626,2.6758,2.6841,2.6925,2.6957,2.7102,2.7158,2.7209,2.7241,2.7218,2.7172,2.7157,2.7161,2.7143,2.711,2.7344,2.7345,2.7345,2.6745,2.6754,2.6871,2.6919,2.7,2.7071,2.721,2.731,2.7361,2.7357,2.7268,2.7256,2.7181,2.7155,2.7149,2.712,2.706,0,0]},{"header":{"parameterUnit":"m.s-1","parameterCategory":1,"la1":30.2992,"la2":30.254,"lo1":-89.0895,"lo2":-89.0443,"dy":0.0025,"dx":0.0025,"nx":19,"ny":19,"refTime":"2026-03-23T09:00:00:Z","depth":0,"parameterNumber":3,"parameterNumberName":"V-component_of_WINDS"},"data":[0,0,0,-2.6185,-2.6182,-2.6067,-2.6066,-2.5908,-2.5907,0,0,0,0,0,0,0,0,0,0,0,-2.622,-2.6219,-2.6185,-2.6182,-2.6067,-2.6066,-2.5908,-2.5907,0,0,0,0,0,0,0,0,0,0,0,-2.622,-2.6219,-2.6218,-2.6182,-2.6067,-2.6066,-2.5909,-2.5998,0,0,0,0,0,0,0,0,0,0,-2.6111,-2.6145,-2.6219,-2.6218,-2.6181,-2.6067,-2.6066,-2.6002,-2.5992,-2.5958,0,-2.5934,0,-2.5918,-2.5896,-2.5895,0,0,0,-2.618,-2.6154,-2.6123,-2.6217,-2.618,-2.6067,-2.6118,-2.5997,-2.5985,-2.5945,-2.5932,-2.5926,-2.5916,-2.5895,-2.5894,-2.572,-2.5719,0,0,-2.6186,-2.6197,-2.6131,-2.6116,-2.6141,-2.6122,-2.6115,-2.599,-2.5974,-2.5931,-2.5922,-2.5913,-2.5894,-2.5893,-2.5721,-2.572,0,0,0,-2.6206,-2.6202,-2.6174,-2.6122,-2.6103,-2.6119,-2.611,-2.5979,-2.597,-2.5921,-2.5911,-2.5893,-2.5891,-2.5721,-2.572,-2.5697,0,0,0,-2.621,-2.6214,-2.6177,-2.6182,-2.6105,-2.6041,-2.6102,-2.5978,-2.5964,-2.5912,-2.5893,-2.5889,-2.5722,-2.5721,-2.57,-2.5683,0,0,0,-2.6226,-2.6215,-2.62,-2.6183,-2.6135,-2.6043,-2.6026,-2.5975,-2.5958,-2.5895,-2.5889,-2.5723,-2.5721,-2.5702,-2.5686,-2.5639,0,0,0,-2.6246,-2.6179,-2.62,-2.612,-2.6136,-2.6033,-2.6027,-2.5947,-2.5891,-2.5892,-2.5722,-2.572,-2.5702,-2.5688,-2.5641,-2.5599,-2.5584,0,0,-2.6166,-2.6169,-2.6122,-2.6137,-2.6034,-2.6049,-2.5939,-2.5874,-2.5854,-2.5764,-2.5759,-2.5699,-2.5686,-2.5639,-2.55,-2.5489,0,0,0,-2.61,-2.6065,-2.6036,-2.5986,-2.5939,-2.5894,-2.5847,-2.5822,-2.5746,-2.5813,-2.567,-2.5662,-2.5634,-2.5613,-2.5603,-2.5576,-2.5712,-2.5713,-2.5713,-2.6,-2.5984,-2.5903,-2.5873,-2.5824,-2.5776,-2.5733,-2.569,-2.5685,-2.5651,-2.5623,-2.5542,-2.5518,-2.551,-2.5483,-2.5602,-2.5602,-2.5602,-2.5602,-2.5879,-2.5826,-2.5826,-2.5747,-2.5728,-2.5658,-2.5608,-2.5606,-2.5535,-2.5562,-2.5536,-2.5564,-2.5498,-2.5472,-2.56,-2.56,-2.5601,-2.5601,-2.5601,-2.5809,-2.5781,-2.5757,-2.5683,-2.5627,-2.5597,-2.553,-2.5514,-2.5498,-2.5473,-2.5439,-2.5439,-2.5434,-2.5459,-2.5458,-2.5458,-2.5458,-2.5458,-2.5457,-2.5744,-2.5718,-2.5667,-2.5613,-2.5579,-2.5531,-2.5482,-2.5445,-2.5399,-2.5392,-2.5391,-2.5386,-2.5498,-2.5524,-2.5453,-2.5454,-2.5454,-2.5455,-2.5455,-2.5622,-2.5648,-2.5569,-2.5535,-2.5469,-2.5411,-2.5395,-2.5321,-2.5288,-2.5254,-2.5255,-2.5342,-2.5341,-2.5348,-2.5369,-2.5263,-2.5263,-2.5263,-2.5263,-2.556,-2.5561,-2.5476,-2.5423,-2.5368,-2.5345,-2.5249,-2.5209,-2.517,-2.5147,-2.5161,-2.5189,-2.5198,-2.5191,-2.5202,-2.5222,-2.508,-2.5079,-2.5079,-2.5482,-2.5477,-2.5401,-2.5372,-2.5319,-2.5271,-2.5179,-2.5111,-2.5072,-2.5071,-2.5128,-2.5135,-2.518,-2.5197,-2.5194,-2.5212,-2.5247,0,0]}]]